{"data":{"norad_id":67130,"intl_designator":"2025-299AE","name":"STARLINK-36194","alt_names":[],"object_type":"PAYLOAD","status":"ACTIVE","operator":null,"country":"US","launch_date":"2025-12-15","launch_site_code":"AFETR","launch_vehicle":null,"mission":null,"orbit_class":"UNKNOWN","rcs_meters":null,"size_class":null,"mass_kg":null,"dimensions":null,"purposes":["comms"],"wikipedia_slug":null,"has_3d_model":false,"image_url":null,"decayed_at":null,"tle_current":{"epoch":"2026-05-25T04:05:02.625792Z","epoch_age_seconds":60070,"freshness":"FRESH","line1":"1 67130U 25299AE  26145.17016928  .00016321  00000+0  60120-3 0  9990","line2":"2 67130  42.9981  97.0033 0001007 272.2732  87.8004 15.27585291 24814","mean_motion":15.27585291,"eccentricity":0.0001007,"inclination_deg":42.9981,"raan_deg":97.0033,"arg_perigee_deg":272.2732,"mean_anomaly_deg":87.8004,"bstar":0.0006012,"rev_number":2481,"period_min":94.266422207911,"perigee_km":482.34233308349,"apogee_km":483.72417277242,"semimajor_km":6861.170252928,"source":"CELESTRAK","updated_at":"2026-05-25T13:38:21.479080Z"}}}